Time,TemperatureF,DewpointF,PressureIn,WindDirection,WindDirectionDegrees,WindSpeedMPH,WindSpeedGustMPH,Humidity,HourlyPrecipIn,Conditions,Clouds,dailyrainin,SoftwareType,DateUTC
2013-03-06 00:00:00,36.4,27.6,29.82,ESE,105,2.0,3.0,70,0.00,,---,0.00,VWS V14.01,2013-03-06 05:00:00,
2013-03-06 00:05:00,36.3,27.5,29.81,ESE,105,2.0,3.0,70,0.00,,---,0.00,VWS V14.01,2013-03-06 05:05:00,
2013-03-06 00:10:00,36.3,27.8,29.81,ESE,108,1.0,3.0,71,0.00,,---,0.00,VWS V14.01,2013-03-06 05:10:00,
2013-03-06 00:15:00,36.2,27.7,29.81,ESE,106,2.0,3.0,71,0.00,,---,0.00,VWS V14.01,2013-03-06 05:15:00,
2013-03-06 00:20:00,36.0,27.9,29.81,ESE,108,1.0,3.0,72,0.00,,---,0.00,VWS V14.01,2013-03-06 05:20:00,
2013-03-06 00:25:00,35.8,28.3,29.80,East,96,2.0,4.0,74,0.00,,---,0.00,VWS V14.01,2013-03-06 05:25:00,
2013-03-06 00:30:00,35.5,28.4,29.80,ESE,109,3.0,8.0,75,0.00,,---,0.00,VWS V14.01,2013-03-06 05:30:00,
2013-03-06 00:35:00,35.1,28.6,29.79,SE,127,2.0,3.0,77,0.00,,---,0.00,VWS V14.01,2013-03-06 05:35:00,
2013-03-06 00:40:00,34.7,28.9,29.79,SE,131,3.0,7.0,79,0.00,,---,0.00,VWS V14.01,2013-03-06 05:40:00,
2013-03-06 00:45:00,34.2,29.3,29.79,East,98,4.0,4.0,82,0.00,,---,0.00,VWS V14.01,2013-03-06 05:45:00,
2013-03-06 00:50:00,33.8,29.5,29.78,East,101,1.0,4.0,84,0.00,,---,0.00,VWS V14.01,2013-03-06 05:50:00,
2013-03-06 00:55:00,33.4,29.7,29.78,ESE,111,2.0,3.0,86,0.00,,---,0.00,VWS V14.01,2013-03-06 05:55:00,
2013-03-06 01:00:00,33.1,29.7,29.78,East,93,2.0,6.0,87,0.00,,---,0.00,VWS V14.01,2013-03-06 06:00:00,
2013-03-06 01:05:00,32.8,29.6,29.77,East,99,5.0,5.0,88,0.00,,---,0.00,VWS V14.01,2013-03-06 06:05:00,
2013-03-06 01:10:00,32.6,29.7,29.78,ESE,102,2.0,6.0,89,0.00,,---,0.00,VWS V14.01,2013-03-06 06:10:00,
2013-03-06 01:15:00,32.4,29.8,29.77,East,101,1.0,4.0,90,0.00,,---,0.00,VWS V14.01,2013-03-06 06:15:00,
2013-03-06 01:20:00,32.2,29.6,29.77,ESE,115,1.0,4.0,90,0.00,,---,0.00,VWS V14.01,2013-03-06 06:20:00,
2013-03-06 01:25:00,32.1,29.8,29.77,ESE,111,1.0,3.0,91,0.00,,---,0.00,VWS V14.01,2013-03-06 06:25:00,
2013-03-06 01:30:00,32.0,29.7,29.76,ESE,121,1.0,3.0,91,0.00,,---,0.00,VWS V14.01,2013-03-06 06:30:00,
2013-03-06 01:35:00,32.0,29.7,29.76,East,97,1.0,3.0,91,0.00,,---,0.00,VWS V14.01,2013-03-06 06:35:00,
2013-03-06 01:40:00,31.8,29.8,29.75,East,96,1.0,3.0,92,0.00,,---,0.00,VWS V14.01,2013-03-06 06:40:00,
2013-03-06 01:45:00,31.8,29.8,29.75,SSE,148,0.0,2.0,92,0.00,,---,0.00,VWS V14.01,2013-03-06 06:45:00,
2013-03-06 01:50:00,31.7,29.6,29.74,East,96,1.0,2.0,92,0.00,,---,0.00,VWS V14.01,2013-03-06 06:50:00,
2013-03-06 01:55:00,31.6,29.8,29.73,East,96,2.0,2.0,93,0.00,,---,0.00,VWS V14.01,2013-03-06 06:55:00,
2013-03-06 02:00:00,31.6,29.8,29.73,SE,127,2.0,2.0,93,0.00,,---,0.00,VWS V14.01,2013-03-06 07:00:00,
2013-03-06 02:05:00,31.5,29.7,29.73,SE,136,0.0,2.0,93,0.00,,---,0.00,VWS V14.01,2013-03-06 07:05:00,
2013-03-06 02:10:00,31.5,29.7,29.72,East,92,1.0,2.0,93,0.00,,---,0.00,VWS V14.01,2013-03-06 07:10:00,
2013-03-06 02:15:00,31.4,29.6,29.72,ESE,103,2.0,2.0,93,0.00,,---,0.00,VWS V14.01,2013-03-06 07:15:00,
2013-03-06 02:20:00,31.5,29.7,29.72,ESE,110,0.0,2.0,93,0.00,,---,0.00,VWS V14.01,2013-03-06 07:20:00,
2013-03-06 02:25:00,31.5,30.0,29.71,ESE,119,1.0,2.0,94,0.00,,---,0.00,VWS V14.01,2013-03-06 07:25:00,
2013-03-06 02:30:00,31.5,30.0,29.71,ESE,114,1.0,2.0,94,0.00,,---,0.00,VWS V14.01,2013-03-06 07:30:00,
2013-03-06 02:35:00,31.5,30.0,29.71,East,101,1.0,1.0,94,0.00,,---,0.00,VWS V14.01,2013-03-06 07:35:00,
2013-03-06 02:40:00,31.5,30.0,29.70,East,101,0.0,2.0,94,0.00,,---,0.00,VWS V14.01,2013-03-06 07:40:00,
2013-03-06 02:45:00,31.5,30.0,29.70,ESE,106,0.0,0.0,94,0.00,,---,0.00,VWS V14.01,2013-03-06 07:45:00,
2013-03-06 02:50:00,31.5,30.0,29.71,ESE,103,0.0,0.0,94,0.00,,---,0.00,VWS V14.01,2013-03-06 07:50:00,
2013-03-06 02:55:00,31.6,30.1,29.70,ESE,110,0.0,0.0,94,0.00,,---,0.00,VWS V14.01,2013-03-06 07:55:00,
2013-03-06 03:00:00,31.6,30.1,29.70,East,100,0.0,0.0,94,0.00,,---,0.00,VWS V14.01,2013-03-06 08:00:00,
2013-03-06 03:05:00,31.7,30.2,29.71,East,101,0.0,0.0,94,0.00,,---,0.00,VWS V14.01,2013-03-06 08:05:00,
2013-03-06 03:10:00,31.7,30.2,29.71,ESE,103,0.0,0.0,94,0.00,,---,0.00,VWS V14.01,2013-03-06 08:10:00,
2013-03-06 03:15:00,31.8,30.3,29.71,ESE,103,0.0,0.0,94,0.00,,---,0.00,VWS V14.01,2013-03-06 08:15:00,
2013-03-06 03:20:00,31.8,30.3,29.71,ESE,119,0.0,0.0,94,0.00,,---,0.00,VWS V14.01,2013-03-06 08:20:00,
2013-03-06 03:25:00,31.9,30.4,29.70,ESE,107,0.0,0.0,94,0.00,,---,0.00,VWS V14.01,2013-03-06 08:25:00,
2013-03-06 03:30:00,31.9,30.4,29.70,East,98,0.0,0.0,94,0.00,,---,0.00,VWS V14.01,2013-03-06 08:30:00,
2013-03-06 03:35:00,31.9,30.4,29.69,ESE,108,0.0,0.0,94,0.00,,---,0.00,VWS V14.01,2013-03-06 08:35:00,
2013-03-06 03:40:00,31.9,30.4,29.69,East,101,0.0,0.0,94,0.00,,---,0.00,VWS V14.01,2013-03-06 08:40:00,
2013-03-06 03:45:00,31.9,30.4,29.69,ESE,102,0.0,0.0,94,0.00,,---,0.00,VWS V14.01,2013-03-06 08:45:00,
2013-03-06 03:50:00,31.9,30.4,29.68,East,91,0.0,0.0,94,0.00,,---,0.00,VWS V14.01,2013-03-06 08:50:00,
2013-03-06 03:55:00,31.9,30.4,29.68,East,95,0.0,0.0,94,0.00,,---,0.00,VWS V14.01,2013-03-06 08:55:00,
2013-03-06 04:00:00,31.9,30.6,29.67,East,93,0.0,0.0,95,0.00,,---,0.00,VWS V14.01,2013-03-06 09:00:00,
2013-03-06 04:05:00,31.9,30.6,29.67,SE,124,0.0,0.0,95,0.00,,---,0.00,VWS V14.01,2013-03-06 09:05:00,
2013-03-06 04:10:00,31.9,30.6,29.67,East,87,0.0,0.0,95,0.00,,---,0.00,VWS V14.01,2013-03-06 09:10:00,
2013-03-06 04:15:00,32.0,30.7,29.67,East,94,0.0,0.0,95,0.00,,---,0.00,VWS V14.01,2013-03-06 09:15:00,
2013-03-06 04:20:00,32.0,30.7,29.67,ESE,102,0.0,0.0,95,0.00,,---,0.00,VWS V14.01,2013-03-06 09:20:00,
2013-03-06 04:25:00,32.0,30.7,29.66,East,81,0.0,0.0,95,0.00,,---,0.00,VWS V14.01,2013-03-06 09:25:00,
2013-03-06 04:30:00,32.0,30.7,29.66,East,96,0.0,0.0,95,0.00,,---,0.00,VWS V14.01,2013-03-06 09:30:00,
2013-03-06 04:35:00,32.0,30.7,29.66,East,98,0.0,0.0,95,0.00,,---,0.00,VWS V14.01,2013-03-06 09:35:00,
2013-03-06 04:40:00,32.0,30.7,29.66,East,88,0.0,0.0,95,0.00,,---,0.00,VWS V14.01,2013-03-06 09:40:00,
2013-03-06 04:45:00,32.0,30.7,29.66,East,99,0.0,0.0,95,0.00,,---,0.00,VWS V14.01,2013-03-06 09:45:00,
2013-03-06 04:50:00,32.0,30.7,29.65,ENE,68,0.0,0.0,95,0.00,,---,0.00,VWS V14.01,2013-03-06 09:50:00,
2013-03-06 04:55:00,32.0,30.7,29.66,NE,37,0.0,0.0,95,0.00,,---,0.00,VWS V14.01,2013-03-06 09:55:00,
2013-03-06 05:00:00,32.1,30.8,29.66,ENE,75,0.0,0.0,95,0.00,,---,0.00,VWS V14.01,2013-03-06 10:00:00,
2013-03-06 05:05:00,32.0,30.7,29.66,East,96,0.0,0.0,95,0.00,,---,0.00,VWS V14.01,2013-03-06 10:05:00,
2013-03-06 05:10:00,32.1,30.8,29.66,SE,127,0.0,0.0,95,0.00,,---,0.00,VWS V14.01,2013-03-06 10:10:00,
2013-03-06 05:15:00,32.1,30.8,29.66,ENE,63,0.0,0.0,95,0.00,,---,0.00,VWS V14.01,2013-03-06 10:15:00,
2013-03-06 05:20:00,32.1,30.8,29.66,East,80,0.0,0.0,95,0.00,,---,0.00,VWS V14.01,2013-03-06 10:20:00,
2013-03-06 05:25:00,32.2,30.9,29.66,North,2,0.0,0.0,95,0.00,,---,0.00,VWS V14.01,2013-03-06 10:25:00,
2013-03-06 05:30:00,32.2,30.9,29.66,ESE,122,0.0,0.0,95,0.00,,---,0.00,VWS V14.01,2013-03-06 10:30:00,
2013-03-06 05:35:00,32.2,30.9,29.66,East,94,0.0,0.0,95,0.00,,---,0.00,VWS V14.01,2013-03-06 10:35:00,
2013-03-06 05:40:00,32.3,31.0,29.66,NNE,25,0.0,0.0,95,0.00,,---,0.00,VWS V14.01,2013-03-06 10:40:00,
2013-03-06 05:45:00,32.2,30.9,29.66,ENE,61,0.0,0.0,95,0.00,,---,0.00,VWS V14.01,2013-03-06 10:45:00,
2013-03-06 05:50:00,32.2,30.9,29.66,ESE,104,0.0,0.0,95,0.00,,---,0.00,VWS V14.01,2013-03-06 10:50:00,
2013-03-06 05:55:00,32.2,30.9,29.66,East,86,0.0,0.0,95,0.00,,---,0.00,VWS V14.01,2013-03-06 10:55:00,
2013-03-06 06:00:00,32.3,31.0,29.66,ESE,108,0.0,0.0,95,0.00,,---,0.00,VWS V14.01,2013-03-06 11:00:00,
2013-03-06 06:05:00,32.3,31.0,29.66,ENE,77,0.0,0.0,95,0.00,,---,0.00,VWS V14.01,2013-03-06 11:05:00,
2013-03-06 06:10:00,32.3,31.0,29.66,ENE,68,0.0,0.0,95,0.00,,---,0.00,VWS V14.01,2013-03-06 11:10:00,
2013-03-06 06:15:00,32.3,31.0,29.66,ENE,60,0.0,0.0,95,0.00,,---,0.00,VWS V14.01,2013-03-06 11:15:00,
2013-03-06 06:20:00,32.3,31.0,29.66,East,86,0.0,0.0,95,0.00,,---,0.00,VWS V14.01,2013-03-06 11:20:00,
2013-03-06 06:25:00,32.3,31.0,29.66,ENE,66,0.0,0.0,95,0.00,,---,0.00,VWS V14.01,2013-03-06 11:25:00,
2013-03-06 06:30:00,32.3,31.0,29.65,ESE,102,0.0,0.0,95,0.00,,---,0.00,VWS V14.01,2013-03-06 11:30:00,
2013-03-06 06:35:00,32.3,31.0,29.65,NW,307,0.0,0.0,95,0.00,,---,0.00,VWS V14.01,2013-03-06 11:35:00,
2013-03-06 06:40:00,32.4,31.1,29.65,ESE,112,0.0,0.0,95,0.00,,---,0.00,VWS V14.01,2013-03-06 11:40:00,
2013-03-06 06:45:00,32.4,31.1,29.65,East,86,0.0,0.0,95,0.00,,---,0.00,VWS V14.01,2013-03-06 11:45:00,
2013-03-06 06:50:00,32.4,31.1,29.64,ENE,60,0.0,0.0,95,0.00,,---,0.00,VWS V14.01,2013-03-06 11:50:00,
2013-03-06 06:55:00,32.4,30.9,29.64,ESE,113,0.0,0.0,94,0.00,,---,0.00,VWS V14.01,2013-03-06 11:55:00,
2013-03-06 07:00:00,32.4,30.9,29.64,NE,39,0.0,0.0,94,0.00,,---,0.00,VWS V14.01,2013-03-06 12:00:00,
2013-03-06 07:05:00,32.4,30.9,29.64,SSE,153,0.0,0.0,94,0.00,,---,0.00,VWS V14.01,2013-03-06 12:05:00,
2013-03-06 07:10:00,32.4,30.9,29.65,ENE,64,0.0,0.0,94,0.00,,---,0.00,VWS V14.01,2013-03-06 12:10:00,
2013-03-06 07:15:00,32.4,30.9,29.65,West,271,0.0,0.0,94,0.00,,---,0.00,VWS V14.01,2013-03-06 12:15:00,
2013-03-06 07:20:00,32.4,30.9,29.65,NNW,346,0.0,0.0,94,0.00,,---,0.00,VWS V14.01,2013-03-06 12:20:00,
2013-03-06 07:25:00,32.4,30.9,29.65,East,83,0.0,0.0,94,0.00,,---,0.00,VWS V14.01,2013-03-06 12:25:00,
2013-03-06 07:30:00,32.5,31.0,29.65,ENE,71,0.0,0.0,94,0.00,,---,0.00,VWS V14.01,2013-03-06 12:30:00,
2013-03-06 07:35:00,32.5,31.0,29.66,WNW,302,0.0,0.0,94,0.00,,---,0.00,VWS V14.01,2013-03-06 12:35:00,
2013-03-06 07:40:00,32.5,31.0,29.65,East,97,0.0,2.0,94,0.00,,---,0.00,VWS V14.01,2013-03-06 12:40:00,
2013-03-06 07:45:00,32.6,31.1,29.66,NE,55,1.0,1.0,94,0.00,,---,0.00,VWS V14.01,2013-03-06 12:45:00,
2013-03-06 07:50:00,32.6,31.1,29.65,West,277,0.0,2.0,94,0.00,,---,0.00,VWS V14.01,2013-03-06 12:50:00,
2013-03-06 07:55:00,32.5,31.0,29.65,West,269,2.0,3.0,94,0.00,,---,0.00,VWS V14.01,2013-03-06 12:55:00,
2013-03-06 08:00:00,32.5,31.0,29.65,NW,324,0.0,3.0,94,0.00,,---,0.00,VWS V14.01,2013-03-06 13:00:00,
2013-03-06 08:05:00,32.5,31.0,29.65,ENE,63,0.0,2.0,94,0.00,,---,0.00,VWS V14.01,2013-03-06 13:05:00,
2013-03-06 08:10:00,32.6,31.1,29.66,ESE,113,0.0,3.0,94,0.00,,---,0.00,VWS V14.01,2013-03-06 13:10:00,
2013-03-06 08:15:00,32.6,31.1,29.66,North,360,0.0,1.0,94,0.00,,---,0.00,VWS V14.01,2013-03-06 13:15:00,
2013-03-06 08:20:00,32.6,31.1,29.66,NW,319,1.0,3.0,94,0.00,,---,0.00,VWS V14.01,2013-03-06 13:20:00,
2013-03-06 08:25:00,32.6,31.1,29.66,WNW,290,3.0,3.0,94,0.00,,---,0.00,VWS V14.01,2013-03-06 13:25:00,
2013-03-06 08:30:00,32.5,31.0,29.66,WNW,297,1.0,3.0,94,0.00,,---,0.00,VWS V14.01,2013-03-06 13:30:00,
2013-03-06 08:35:00,32.6,31.3,29.66,WNW,288,2.0,5.0,95,0.00,,---,0.00,VWS V14.01,2013-03-06 13:35:00,
2013-03-06 08:40:00,32.7,31.4,29.66,East,79,3.0,5.0,95,0.00,,---,0.00,VWS V14.01,2013-03-06 13:40:00,
2013-03-06 08:45:00,32.7,31.2,29.66,West,270,1.0,3.0,94,0.00,,---,0.00,VWS V14.01,2013-03-06 13:45:00,
2013-03-06 08:50:00,32.7,31.2,29.66,NW,314,4.0,5.0,94,0.00,,---,0.00,VWS V14.01,2013-03-06 13:50:00,
2013-03-06 08:55:00,32.8,31.3,29.66,ENE,63,3.0,6.0,94,0.00,,---,0.00,VWS V14.01,2013-03-06 13:55:00,
2013-03-06 09:00:00,32.9,31.4,29.66,NW,322,1.0,9.0,94,0.00,,---,0.00,VWS V14.01,2013-03-06 14:00:00,
2013-03-06 09:05:00,32.9,31.4,29.66,West,281,0.0,5.0,94,0.00,,---,0.00,VWS V14.01,2013-03-06 14:05:00,
2013-03-06 09:10:00,32.9,31.4,29.66,NW,305,3.0,5.0,94,0.00,,---,0.00,VWS V14.01,2013-03-06 14:10:00,
2013-03-06 09:15:00,32.9,31.4,29.67,East,94,0.0,6.0,94,0.00,,---,0.00,VWS V14.01,2013-03-06 14:15:00,
2013-03-06 09:20:00,33.0,31.5,29.67,SSW,208,0.0,6.0,94,0.00,,---,0.00,VWS V14.01,2013-03-06 14:20:00,
2013-03-06 09:25:00,33.0,31.5,29.66,West,269,0.0,6.0,94,0.00,,---,0.00,VWS V14.01,2013-03-06 14:25:00,
2013-03-06 09:30:00,32.9,31.4,29.66,NW,309,1.0,6.0,94,0.00,,---,0.00,VWS V14.01,2013-03-06 14:30:00,
2013-03-06 09:35:00,32.9,31.4,29.66,NW,304,3.0,7.0,94,0.00,,---,0.00,VWS V14.01,2013-03-06 14:35:00,
2013-03-06 09:40:00,32.9,31.4,29.66,WNW,285,1.0,8.0,94,0.00,,---,0.00,VWS V14.01,2013-03-06 14:40:00,
2013-03-06 09:45:00,33.0,31.5,29.66,North,5,2.0,6.0,94,0.00,,---,0.00,VWS V14.01,2013-03-06 14:45:00,
2013-03-06 09:50:00,33.1,31.6,29.66,NNW,345,2.0,10.0,94,0.00,,---,0.00,VWS V14.01,2013-03-06 14:50:00,
2013-03-06 09:55:00,33.2,31.7,29.66,North,356,2.0,5.0,94,0.00,,---,0.00,VWS V14.01,2013-03-06 14:55:00,
2013-03-06 10:00:00,33.3,31.8,29.67,ENE,70,2.0,6.0,94,0.00,,---,0.00,VWS V14.01,2013-03-06 15:00:00,
2013-03-06 10:05:00,33.5,32.0,29.66,NW,313,3.0,7.0,94,0.00,,---,0.00,VWS V14.01,2013-03-06 15:05:00,
2013-03-06 10:10:00,33.5,32.0,29.66,NW,307,4.0,7.0,94,0.00,,---,0.00,VWS V14.01,2013-03-06 15:10:00,
2013-03-06 10:15:00,33.5,32.0,29.67,NW,311,6.0,6.0,94,0.00,,---,0.00,VWS V14.01,2013-03-06 15:15:00,
2013-03-06 10:20:00,33.6,32.1,29.67,NE,39,1.0,8.0,94,0.00,,---,0.00,VWS V14.01,2013-03-06 15:20:00,
2013-03-06 10:25:00,33.6,32.1,29.67,ESE,103,0.0,7.0,94,0.00,,---,0.00,VWS V14.01,2013-03-06 15:25:00,
2013-03-06 10:30:00,33.5,32.0,29.67,West,281,2.0,7.0,94,0.00,,---,0.00,VWS V14.01,2013-03-06 15:30:00,
2013-03-06 10:35:00,33.4,31.6,29.67,North,351,2.0,7.0,93,0.00,,---,0.00,VWS V14.01,2013-03-06 15:35:00,
2013-03-06 10:40:00,33.3,31.8,29.67,WNW,296,4.0,7.0,94,0.00,,---,0.00,VWS V14.01,2013-03-06 15:40:00,
2013-03-06 10:45:00,33.3,31.8,29.68,NE,43,2.0,6.0,94,0.00,,---,0.00,VWS V14.01,2013-03-06 15:45:00,
2013-03-06 10:50:00,33.2,31.7,29.67,WSW,252,1.0,6.0,94,0.00,,---,0.00,VWS V14.01,2013-03-06 15:50:00,
2013-03-06 10:55:00,33.1,31.6,29.68,WSW,250,3.0,5.0,94,0.00,,---,0.00,VWS V14.01,2013-03-06 15:55:00,
2013-03-06 11:00:00,33.1,31.6,29.68,WNW,296,5.0,7.0,94,0.00,,---,0.00,VWS V14.01,2013-03-06 16:00:00,
2013-03-06 11:05:00,33.0,31.5,29.68,NW,313,3.0,8.0,94,0.01,,---,0.01,VWS V14.01,2013-03-06 16:05:00,
2013-03-06 11:10:00,33.0,31.5,29.68,NW,307,1.0,8.0,94,0.01,,---,0.01,VWS V14.01,2013-03-06 16:10:00,
2013-03-06 11:15:00,33.1,31.6,29.68,NW,318,5.0,7.0,94,0.01,,---,0.01,VWS V14.01,2013-03-06 16:15:00,
2013-03-06 11:20:00,33.1,31.6,29.68,WNW,289,0.0,8.0,94,0.02,,---,0.02,VWS V14.01,2013-03-06 16:20:00,
2013-03-06 11:25:00,33.2,31.7,29.68,NW,322,5.0,8.0,94,0.02,,---,0.02,VWS V14.01,2013-03-06 16:25:00,
2013-03-06 11:30:00,33.1,31.6,29.69,WSW,242,5.0,9.0,94,0.03,,---,0.03,VWS V14.01,2013-03-06 16:30:00,
2013-03-06 11:35:00,33.2,31.7,29.69,SE,137,1.0,8.0,94,0.03,,---,0.03,VWS V14.01,2013-03-06 16:35:00,
2013-03-06 11:40:00,33.2,31.7,29.69,WNW,295,2.0,8.0,94,0.03,,---,0.03,VWS V14.01,2013-03-06 16:40:00,
2013-03-06 11:45:00,33.2,31.7,29.69,NNE,18,2.0,9.0,94,0.04,,---,0.04,VWS V14.01,2013-03-06 16:45:00,
2013-03-06 11:50:00,33.2,31.7,29.69,NW,304,1.0,9.0,94,0.04,,---,0.04,VWS V14.01,2013-03-06 16:50:00,
2013-03-06 11:55:00,33.1,31.6,29.69,NNE,28,5.0,10.0,94,0.04,,---,0.04,VWS V14.01,2013-03-06 16:55:00,
2013-03-06 12:00:00,33.0,31.5,29.69,NW,324,2.0,10.0,94,0.04,,---,0.04,VWS V14.01,2013-03-06 17:00:00,
2013-03-06 12:05:00,33.0,31.5,29.70,NW,304,5.0,7.0,94,0.04,,---,0.04,VWS V14.01,2013-03-06 17:05:00,
2013-03-06 12:10:00,32.9,31.4,29.70,WNW,300,3.0,7.0,94,0.04,,---,0.04,VWS V14.01,2013-03-06 17:10:00,
2013-03-06 12:15:00,32.8,31.3,29.70,WNW,302,4.0,6.0,94,0.03,,---,0.04,VWS V14.01,2013-03-06 17:15:00,
2013-03-06 12:20:00,32.8,31.5,29.70,WNW,297,8.0,8.0,95,0.03,,---,0.04,VWS V14.01,2013-03-06 17:20:00,
2013-03-06 12:25:00,32.9,31.6,29.70,NW,322,2.0,9.0,95,0.02,,---,0.04,VWS V14.01,2013-03-06 17:25:00,
2013-03-06 12:30:00,32.9,31.4,29.70,WNW,300,2.0,9.0,94,0.02,,---,0.04,VWS V14.01,2013-03-06 17:30:00,
2013-03-06 12:35:00,32.9,31.4,29.70,WNW,301,3.0,8.0,94,0.01,,---,0.04,VWS V14.01,2013-03-06 17:35:00,
2013-03-06 12:40:00,33.1,31.6,29.70,NW,310,6.0,8.0,94,0.01,,---,0.04,VWS V14.01,2013-03-06 17:40:00,
2013-03-06 12:45:00,33.2,31.7,29.70,WNW,299,2.0,8.0,94,0.00,,---,0.04,VWS V14.01,2013-03-06 17:45:00,
2013-03-06 12:50:00,33.3,31.8,29.70,NW,307,4.0,9.0,94,0.00,,---,0.04,VWS V14.01,2013-03-06 17:50:00,
2013-03-06 12:55:00,33.5,32.0,29.70,NW,309,4.0,12.0,94,0.00,,---,0.04,VWS V14.01,2013-03-06 17:55:00,
2013-03-06 13:00:00,33.6,32.1,29.71,NE,35,5.0,12.0,94,0.01,,---,0.05,VWS V14.01,2013-03-06 18:00:00,
2013-03-06 13:05:00,33.6,31.8,29.70,NW,313,6.0,10.0,93,0.01,,---,0.05,VWS V14.01,2013-03-06 18:05:00,
2013-03-06 13:10:00,33.6,31.8,29.71,WNW,301,6.0,10.0,93,0.01,,---,0.05,VWS V14.01,2013-03-06 18:10:00,
2013-03-06 13:15:00,33.5,31.7,29.71,NNW,329,6.0,10.0,93,0.01,,---,0.05,VWS V14.01,2013-03-06 18:15:00,
2013-03-06 13:20:00,33.5,32.0,29.71,WNW,296,6.0,10.0,94,0.01,,---,0.05,VWS V14.01,2013-03-06 18:20:00,
2013-03-06 13:25:00,33.4,31.9,29.71,West,264,6.0,8.0,94,0.01,,---,0.05,VWS V14.01,2013-03-06 18:25:00,
2013-03-06 13:30:00,33.5,32.0,29.71,NNW,334,3.0,10.0,94,0.02,,---,0.06,VWS V14.01,2013-03-06 18:30:00,
2013-03-06 13:35:00,33.6,31.8,29.72,NNW,335,5.0,8.0,93,0.02,,---,0.06,VWS V14.01,2013-03-06 18:35:00,
2013-03-06 13:40:00,33.6,31.8,29.72,West,280,7.0,9.0,93,0.03,,---,0.07,VWS V14.01,2013-03-06 18:40:00,
2013-03-06 13:45:00,33.6,31.8,29.72,WNW,302,7.0,12.0,93,0.03,,---,0.07,VWS V14.01,2013-03-06 18:45:00,
2013-03-06 13:50:00,33.5,31.7,29.73,NNW,328,8.0,12.0,93,0.03,,---,0.07,VWS V14.01,2013-03-06 18:50:00,
2013-03-06 13:55:00,33.6,31.8,29.73,NW,326,4.0,12.0,93,0.04,,---,0.08,VWS V14.01,2013-03-06 18:55:00,
2013-03-06 14:00:00,33.6,31.8,29.73,WNW,302,4.0,12.0,93,0.04,,---,0.08,VWS V14.01,2013-03-06 19:00:00,
2013-03-06 14:05:00,33.5,31.7,29.73,WNW,295,10.0,10.0,93,0.03,,---,0.08,VWS V14.01,2013-03-06 19:05:00,
2013-03-06 14:10:00,33.5,32.0,29.74,NW,318,5.0,10.0,94,0.04,,---,0.09,VWS V14.01,2013-03-06 19:10:00,
2013-03-06 14:15:00,33.5,32.0,29.74,WSW,247,3.0,8.0,94,0.04,,---,0.09,VWS V14.01,2013-03-06 19:15:00,
2013-03-06 14:20:00,33.5,32.0,29.75,North,359,6.0,10.0,94,0.05,,---,0.10,VWS V14.01,2013-03-06 19:20:00,
2013-03-06 14:25:00,33.7,31.9,29.75,NW,321,5.0,11.0,93,0.05,,---,0.10,VWS V14.01,2013-03-06 19:25:00,
2013-03-06 14:30:00,33.9,32.1,29.75,NW,322,4.0,13.0,93,0.06,,---,0.11,VWS V14.01,2013-03-06 19:30:00,
2013-03-06 14:35:00,34.0,32.2,29.75,NW,318,6.0,10.0,93,0.05,,---,0.11,VWS V14.01,2013-03-06 19:35:00,
2013-03-06 14:40:00,34.1,32.3,29.76,NW,326,10.0,12.0,93,0.06,,---,0.12,VWS V14.01,2013-03-06 19:40:00,
2013-03-06 14:45:00,34.2,32.4,29.76,NW,308,6.0,11.0,93,0.06,,---,0.13,VWS V14.01,2013-03-06 19:45:00,
2013-03-06 14:50:00,34.2,32.4,29.77,NW,319,5.0,12.0,93,0.06,,---,0.13,VWS V14.01,2013-03-06 19:50:00,
2013-03-06 14:55:00,34.2,32.4,29.77,WNW,303,8.0,15.0,93,0.07,,---,0.14,VWS V14.01,2013-03-06 19:55:00,
2013-03-06 15:00:00,34.2,32.4,29.77,North,1,7.0,15.0,93,0.08,,---,0.15,VWS V14.01,2013-03-06 20:00:00,
2013-03-06 15:05:00,34.2,32.4,29.77,NW,309,7.0,15.0,93,0.08,,---,0.16,VWS V14.01,2013-03-06 20:05:00,
2013-03-06 15:10:00,34.2,32.4,29.78,NW,323,3.0,15.0,93,0.08,,---,0.16,VWS V14.01,2013-03-06 20:10:00,
2013-03-06 15:15:00,34.3,32.5,29.79,NW,315,7.0,13.0,93,0.08,,---,0.17,VWS V14.01,2013-03-06 20:15:00,
2013-03-06 15:20:00,34.3,32.5,29.79,WNW,301,3.0,13.0,93,0.09,,---,0.18,VWS V14.01,2013-03-06 20:20:00,
2013-03-06 15:25:00,34.3,32.5,29.79,NW,323,4.0,11.0,93,0.09,,---,0.19,VWS V14.01,2013-03-06 20:25:00,
2013-03-06 15:30:00,34.3,32.8,29.80,WNW,296,3.0,11.0,94,0.10,,---,0.20,VWS V14.01,2013-03-06 20:30:00,
2013-03-06 15:35:00,34.5,32.7,29.80,SW,226,4.0,13.0,93,0.10,,---,0.21,VWS V14.01,2013-03-06 20:35:00,
2013-03-06 15:40:00,34.6,32.8,29.81,WNW,290,3.0,13.0,93,0.10,,---,0.21,VWS V14.01,2013-03-06 20:40:00,
2013-03-06 15:45:00,34.7,32.9,29.81,NNW,329,4.0,8.0,93,0.10,,---,0.22,VWS V14.01,2013-03-06 20:45:00,
2013-03-06 15:50:00,34.7,32.9,29.82,NW,312,4.0,12.0,93,0.11,,---,0.23,VWS V14.01,2013-03-06 20:50:00,
2013-03-06 15:55:00,34.7,32.9,29.82,NW,324,2.0,10.0,93,0.11,,---,0.24,VWS V14.01,2013-03-06 20:55:00,
2013-03-06 16:00:00,34.8,33.0,29.82,NW,316,6.0,10.0,93,0.12,,---,0.25,VWS V14.01,2013-03-06 21:00:00,
2013-03-06 16:05:00,34.8,33.0,29.83,NNW,328,3.0,8.0,93,0.11,,---,0.26,VWS V14.01,2013-03-06 21:05:00,
2013-03-06 16:10:00,34.8,33.0,29.83,NW,319,5.0,10.0,93,0.11,,---,0.26,VWS V14.01,2013-03-06 21:10:00,
2013-03-06 16:15:00,34.7,32.9,29.84,WNW,293,4.0,9.0,93,0.11,,---,0.27,VWS V14.01,2013-03-06 21:15:00,
2013-03-06 16:20:00,34.7,32.9,29.85,NNE,27,6.0,9.0,93,0.12,,---,0.28,VWS V14.01,2013-03-06 21:20:00,
2013-03-06 16:25:00,34.6,32.8,29.85,NW,316,7.0,9.0,93,0.11,,---,0.29,VWS V14.01,2013-03-06 21:25:00,
2013-03-06 16:30:00,34.5,32.7,29.85,North,350,5.0,10.0,93,0.12,,---,0.30,VWS V14.01,2013-03-06 21:30:00,
2013-03-06 16:35:00,34.6,32.8,29.86,NNW,327,8.0,10.0,93,0.11,,---,0.31,VWS V14.01,2013-03-06 21:35:00,
2013-03-06 16:40:00,34.6,32.8,29.86,NW,323,3.0,11.0,93,0.11,,---,0.31,VWS V14.01,2013-03-06 21:40:00,
2013-03-06 16:45:00,34.7,32.9,29.86,NW,319,3.0,9.0,93,0.11,,---,0.32,VWS V14.01,2013-03-06 21:45:00,
2013-03-06 16:50:00,34.6,32.8,29.87,NW,315,4.0,9.0,93,0.12,,---,0.33,VWS V14.01,2013-03-06 21:50:00,
2013-03-06 16:55:00,34.6,32.8,29.87,NNW,341,4.0,8.0,93,0.11,,---,0.34,VWS V14.01,2013-03-06 21:55:00,
2013-03-06 17:00:00,34.4,32.9,29.87,NW,319,4.0,11.0,94,0.11,,---,0.34,VWS V14.01,2013-03-06 22:00:00,
2013-03-06 17:05:00,34.5,33.0,29.87,NW,311,3.0,13.0,94,0.10,,---,0.35,VWS V14.01,2013-03-06 22:05:00,
2013-03-06 17:10:00,34.7,33.2,29.87,NW,325,4.0,13.0,94,0.11,,---,0.36,VWS V14.01,2013-03-06 22:10:00,
2013-03-06 17:15:00,34.9,33.1,29.88,NW,317,5.0,10.0,93,0.09,,---,0.36,VWS V14.01,2013-03-06 22:15:00,
2013-03-06 17:20:00,34.9,33.1,29.88,NW,324,5.0,11.0,93,0.10,,---,0.37,VWS V14.01,2013-03-06 22:20:00,
2013-03-06 17:25:00,34.9,33.1,29.88,NW,316,5.0,8.0,93,0.10,,---,0.38,VWS V14.01,2013-03-06 22:25:00,
2013-03-06 17:30:00,34.9,33.1,29.88,WNW,290,6.0,10.0,93,0.10,,---,0.38,VWS V14.01,2013-03-06 22:30:00,
2013-03-06 17:35:00,34.8,33.0,29.88,WNW,298,3.0,8.0,93,0.09,,---,0.39,VWS V14.01,2013-03-06 22:35:00,
2013-03-06 17:40:00,34.8,33.0,29.89,North,4,3.0,8.0,93,0.10,,---,0.40,VWS V14.01,2013-03-06 22:40:00,
2013-03-06 17:45:00,34.8,33.0,29.89,NW,326,2.0,7.0,93,0.09,,---,0.40,VWS V14.01,2013-03-06 22:45:00,
2013-03-06 17:50:00,34.8,33.2,29.90,North,350,4.0,8.0,94,0.09,,---,0.40,VWS V14.01,2013-03-06 22:50:00,
2013-03-06 17:55:00,34.9,33.3,29.91,NW,319,5.0,8.0,94,0.08,,---,0.41,VWS V14.01,2013-03-06 22:55:00,
2013-03-06 18:00:00,34.9,33.3,29.91,NNW,330,4.0,8.0,94,0.08,,---,0.41,VWS V14.01,2013-03-06 23:00:00,
2013-03-06 18:05:00,35.0,33.2,29.91,WNW,288,2.0,6.0,93,0.08,,---,0.42,VWS V14.01,2013-03-06 23:05:00,
2013-03-06 18:10:00,35.0,33.2,29.92,WSW,241,2.0,6.0,93,0.08,,---,0.42,VWS V14.01,2013-03-06 23:10:00,
2013-03-06 18:15:00,35.0,33.2,29.92,NW,312,2.0,6.0,93,0.07,,---,0.43,VWS V14.01,2013-03-06 23:15:00,
2013-03-06 18:20:00,35.1,33.3,29.93,NW,319,4.0,6.0,93,0.07,,---,0.43,VWS V14.01,2013-03-06 23:20:00,
2013-03-06 18:25:00,35.0,33.2,29.93,NW,312,3.0,6.0,93,0.07,,---,0.44,VWS V14.01,2013-03-06 23:25:00,
2013-03-06 18:30:00,35.1,33.3,29.93,NNE,12,2.0,6.0,93,0.07,,---,0.44,VWS V14.01,2013-03-06 23:30:00,
2013-03-06 18:35:00,35.1,33.3,29.93,NNW,329,3.0,7.0,93,0.06,,---,0.45,VWS V14.01,2013-03-06 23:35:00,
2013-03-06 18:40:00,35.1,33.3,29.93,WNW,301,2.0,7.0,93,0.06,,---,0.45,VWS V14.01,2013-03-06 23:40:00,
2013-03-06 18:45:00,35.2,33.4,29.94,WNW,301,2.0,8.0,93,0.05,,---,0.45,VWS V14.01,2013-03-06 23:45:00,
2013-03-06 18:50:00,35.2,33.4,29.94,NW,320,4.0,8.0,93,0.06,,---,0.46,VWS V14.01,2013-03-06 23:50:00,
2013-03-06 18:55:00,35.3,33.2,29.94,NNE,14,2.0,7.0,92,0.06,,---,0.46,VWS V14.01,2013-03-06 23:55:00,
2013-03-06 19:00:00,35.4,33.3,29.94,NE,52,3.0,7.0,92,0.06,,---,0.46,VWS V14.01,2013-03-07 00:00:00,
2013-03-06 19:05:00,35.4,33.3,29.95,NW,306,3.0,5.0,92,0.06,,---,0.47,VWS V14.01,2013-03-07 00:05:00,
2013-03-06 19:10:00,35.5,33.4,29.95,NW,310,2.0,7.0,92,0.06,,---,0.47,VWS V14.01,2013-03-07 00:10:00,
2013-03-06 19:15:00,35.5,33.4,29.95,NW,325,1.0,4.0,92,0.05,,---,0.47,VWS V14.01,2013-03-07 00:15:00,
2013-03-06 19:20:00,35.5,33.4,29.95,NW,307,3.0,4.0,92,0.05,,---,0.47,VWS V14.01,2013-03-07 00:20:00,
2013-03-06 19:25:00,35.5,33.4,29.95,West,261,1.0,5.0,92,0.05,,---,0.48,VWS V14.01,2013-03-07 00:25:00,
2013-03-06 19:30:00,35.5,33.4,29.95,NNW,337,2.0,6.0,92,0.05,,---,0.48,VWS V14.01,2013-03-07 00:30:00,
2013-03-06 19:35:00,35.6,33.2,29.95,NNW,347,3.0,6.0,91,0.04,,---,0.48,VWS V14.01,2013-03-07 00:35:00,
2013-03-06 19:40:00,35.7,33.1,29.95,NW,316,2.0,7.0,90,0.04,,---,0.48,VWS V14.01,2013-03-07 00:40:00,
2013-03-06 19:45:00,35.8,33.2,29.95,SW,235,3.0,6.0,90,0.04,,---,0.49,VWS V14.01,2013-03-07 00:45:00,
2013-03-06 19:50:00,35.8,33.2,29.96,NNE,22,0.0,6.0,90,0.04,,---,0.49,VWS V14.01,2013-03-07 00:50:00,
2013-03-06 19:55:00,35.7,33.1,29.96,NW,314,0.0,4.0,90,0.03,,---,0.49,VWS V14.01,2013-03-07 00:55:00,
2013-03-06 20:00:00,35.7,33.1,29.95,NW,306,2.0,6.0,90,0.03,,---,0.49,VWS V14.01,2013-03-07 01:00:00,
2013-03-06 20:05:00,35.6,33.0,29.95,NNW,347,2.0,7.0,90,0.03,,---,0.49,VWS V14.01,2013-03-07 01:05:00,
2013-03-06 20:10:00,35.5,32.9,29.95,West,269,2.0,7.0,90,0.03,,---,0.49,VWS V14.01,2013-03-07 01:10:00,
2013-03-06 20:15:00,35.5,32.9,29.95,North,4,2.0,4.0,90,0.03,,---,0.50,VWS V14.01,2013-03-07 01:15:00,
2013-03-06 20:20:00,35.5,32.9,29.96,NW,321,0.0,5.0,90,0.03,,---,0.50,VWS V14.01,2013-03-07 01:20:00,
2013-03-06 20:25:00,35.5,32.9,29.96,NW,319,6.0,6.0,90,0.03,,---,0.50,VWS V14.01,2013-03-07 01:25:00,
2013-03-06 20:30:00,35.6,32.7,29.96,NW,308,1.0,6.0,89,0.03,,---,0.50,VWS V14.01,2013-03-07 01:30:00,
2013-03-06 20:35:00,35.7,32.5,29.96,NW,326,6.0,7.0,88,0.02,,---,0.50,VWS V14.01,2013-03-07 01:35:00,
2013-03-06 20:40:00,35.8,32.6,29.96,NW,324,3.0,7.0,88,0.02,,---,0.50,VWS V14.01,2013-03-07 01:40:00,
2013-03-06 20:45:00,35.7,32.5,29.96,North,349,1.0,5.0,88,0.02,,---,0.50,VWS V14.01,2013-03-07 01:45:00,
2013-03-06 20:50:00,35.7,32.5,29.96,NNW,328,3.0,5.0,88,0.02,,---,0.50,VWS V14.01,2013-03-07 01:50:00,
2013-03-06 20:55:00,35.7,32.5,29.96,NW,307,1.0,6.0,88,0.01,,---,0.50,VWS V14.01,2013-03-07 01:55:00,
2013-03-06 21:00:00,35.6,32.4,29.96,NW,323,5.0,6.0,88,0.02,,---,0.51,VWS V14.01,2013-03-07 02:00:00,
2013-03-06 21:05:00,35.5,32.6,29.96,NW,311,4.0,6.0,89,0.02,,---,0.51,VWS V14.01,2013-03-07 02:05:00,
2013-03-06 21:10:00,35.4,32.5,29.96,NNW,336,4.0,6.0,89,0.02,,---,0.51,VWS V14.01,2013-03-07 02:10:00,
2013-03-06 21:15:00,35.3,32.4,29.96,NW,311,2.0,5.0,89,0.02,,---,0.51,VWS V14.01,2013-03-07 02:15:00,
2013-03-06 21:20:00,35.3,32.1,29.96,NW,311,2.0,6.0,88,0.02,,---,0.51,VWS V14.01,2013-03-07 02:20:00,
2013-03-06 21:25:00,35.3,32.1,29.96,NW,312,2.0,5.0,88,0.01,,---,0.51,VWS V14.01,2013-03-07 02:25:00,
2013-03-06 21:30:00,35.3,31.8,29.96,NW,320,5.0,6.0,87,0.01,,---,0.51,VWS V14.01,2013-03-07 02:30:00,
2013-03-06 21:35:00,35.3,31.8,29.96,NNE,18,1.0,6.0,87,0.01,,---,0.51,VWS V14.01,2013-03-07 02:35:00,
2013-03-06 21:40:00,35.4,31.9,29.96,NW,323,3.0,6.0,87,0.01,,---,0.51,VWS V14.01,2013-03-07 02:40:00,
2013-03-06 21:45:00,35.4,31.6,29.96,NNW,340,4.0,6.0,86,0.01,,---,0.51,VWS V14.01,2013-03-07 02:45:00,
2013-03-06 21:50:00,35.4,31.6,29.96,North,354,3.0,6.0,86,0.01,,---,0.51,VWS V14.01,2013-03-07 02:50:00,
2013-03-06 21:55:00,35.3,31.5,29.96,NNW,343,3.0,4.0,86,0.01,,---,0.51,VWS V14.01,2013-03-07 02:55:00,
2013-03-06 22:00:00,35.4,31.4,29.96,NNW,335,3.0,4.0,85,0.01,,---,0.51,VWS V14.01,2013-03-07 03:00:00,
2013-03-06 22:05:00,35.4,31.4,29.97,NNW,338,5.0,5.0,85,0.00,,---,0.51,VWS V14.01,2013-03-07 03:05:00,
2013-03-06 22:10:00,35.5,31.1,29.97,WNW,295,3.0,5.0,84,0.00,,---,0.51,VWS V14.01,2013-03-07 03:10:00,
2013-03-06 22:15:00,35.5,31.1,29.97,NNW,338,2.0,4.0,84,0.00,,---,0.51,VWS V14.01,2013-03-07 03:15:00,
2013-03-06 22:20:00,35.5,31.1,29.97,NW,319,3.0,4.0,84,0.00,,---,0.51,VWS V14.01,2013-03-07 03:20:00,
2013-03-06 22:25:00,35.6,31.0,29.98,NNW,329,3.0,5.0,83,0.00,,---,0.51,VWS V14.01,2013-03-07 03:25:00,
2013-03-06 22:30:00,35.7,31.0,29.98,NW,304,3.0,7.0,83,0.00,,---,0.51,VWS V14.01,2013-03-07 03:30:00,
2013-03-06 22:35:00,35.6,31.0,29.98,NW,314,5.0,5.0,83,0.00,,---,0.51,VWS V14.01,2013-03-07 03:35:00,
2013-03-06 22:40:00,35.7,31.0,29.98,WNW,293,4.0,5.0,83,0.00,,---,0.51,VWS V14.01,2013-03-07 03:40:00,
2013-03-06 22:45:00,35.7,30.8,29.98,NW,321,3.0,5.0,82,0.01,,---,0.52,VWS V14.01,2013-03-07 03:45:00,
2013-03-06 22:50:00,35.5,30.9,29.98,NW,326,3.0,5.0,83,0.01,,---,0.52,VWS V14.01,2013-03-07 03:50:00,
2013-03-06 22:55:00,35.5,30.9,29.98,NW,326,3.0,5.0,83,0.01,,---,0.52,VWS V14.01,2013-03-07 03:55:00,
2013-03-06 23:00:00,35.4,30.8,29.98,NW,316,2.0,5.0,83,0.01,,---,0.52,VWS V14.01,2013-03-07 04:00:00,
2013-03-06 23:05:00,35.3,30.7,29.99,NNW,330,2.0,4.0,83,0.01,,---,0.52,VWS V14.01,2013-03-07 04:05:00,
2013-03-06 23:10:00,35.3,30.7,29.99,NNW,327,1.0,4.0,83,0.01,,---,0.52,VWS V14.01,2013-03-07 04:10:00,
2013-03-06 23:15:00,35.2,30.6,29.99,NNW,345,2.0,4.0,83,0.01,,---,0.52,VWS V14.01,2013-03-07 04:15:00,
2013-03-06 23:20:00,35.2,30.6,29.99,NW,315,3.0,4.0,83,0.01,,---,0.52,VWS V14.01,2013-03-07 04:20:00,
2013-03-06 23:25:00,35.1,30.5,29.99,NW,320,2.0,3.0,83,0.01,,---,0.52,VWS V14.01,2013-03-07 04:25:00,
2013-03-06 23:30:00,35.1,30.5,29.99,NNW,330,0.0,4.0,83,0.01,,---,0.52,VWS V14.01,2013-03-07 04:30:00,
2013-03-06 23:35:00,35.1,30.2,29.99,WNW,301,1.0,4.0,82,0.01,,---,0.52,VWS V14.01,2013-03-07 04:35:00,
2013-03-06 23:40:00,35.1,30.2,29.99,NW,318,3.0,4.0,82,0.01,,---,0.52,VWS V14.01,2013-03-07 04:40:00,
2013-03-06 23:45:00,35.2,30.3,30.00,North,356,1.0,5.0,82,0.01,,---,0.52,VWS V14.01,2013-03-07 04:45:00,
2013-03-06 23:50:00,35.1,30.2,30.00,North,355,2.0,5.0,82,0.01,,---,0.52,VWS V14.01,2013-03-07 04:50:00,
2013-03-06 23:55:00,35.2,30.3,30.00,NNW,338,2.0,4.0,82,0.00,,---,0.52,VWS V14.01,2013-03-07 04:55:00,